N8VIM Weather Reports


time (UTC)temp
C
wind
direction
speed
KPH
gust
KPH
rain 1hr
cm
rain 24hr
cm
rain mn
cm
humidity
%
barometer
mb
20260507112516 9 290 1.6 3.2 320.42 0.00 0.03 86 1008.7
20260507112015 9 200 0.0 4.8 320.42 0.00 0.03 87 1008.7
20260507111516 8 267 1.6 3.2 320.42 0.00 0.03 87 1008.6
20260507111018 8 255 0.0 4.8 320.42 0.00 0.03 88 1008.6
20260507110515 8 0 0.0 0.0 320.42 0.00 0.03 89 1008.7
20260507110016 8 184 0.0 3.2 320.42 0.00 0.03 89 1008.6
20260507105515 8 0 1.6 0.0 320.42 0.00 0.03 88 1008.6
20260507105015 8 270 0.0 6.4 320.42 0.00 0.03 88 1008.6
20260507104518 8 307 3.2 1.6 320.42 0.00 0.03 87 1008.5
20260507104016 8 264 0.0 3.2 320.42 0.00 0.03 88 1008.3
20260507103515 8 335 0.0 1.6 320.42 0.00 0.03 87 1008.2
20260507103016 8 187 0.0 3.2 320.42 0.00 0.03 88 1008.0
20260507102015 8 269 1.6 8.0 320.42 0.00 0.03 88 1007.9
20260507101518 8 273 3.2 8.0 320.42 0.00 0.03 88 1008.1
20260507101016 8 280 4.8 8.0 320.42 0.00 0.03 88 1007.9
20260507100515 8 267 1.6 4.8 320.42 0.00 0.03 89 1007.9
20260507100016 8 257 0.0 8.0 320.42 0.00 0.03 89 1008.0
20260507095516 8 245 1.6 4.8 320.42 0.00 0.03 89 1007.9
20260507095015 8 276 0.0 8.0 320.42 0.00 0.03 89 1007.9
20260507094516 8 266 4.8 6.4 320.42 0.00 0.03 89 1008.0
20260507094015 8 308 4.8 8.0 320.42 0.00 0.03 89 1008.0
20260507093518 8 269 4.8 8.0 320.42 0.00 0.03 89 1008.3
20260507093016 8 278 1.6 6.4 320.42 0.00 0.03 89 1008.3
20260507092515 8 298 3.2 6.4 320.42 0.00 0.03 89 1008.1
20260507092016 8 281 4.8 11.3 320.42 0.00 0.03 89 1008.4
20260507091516 8 284 4.8 11.3 320.42 0.00 0.03 88 1008.3
20260507091016 8 257 1.6 4.8 320.42 0.00 0.03 89 1008.3
20260507090515 8 266 0.0 8.0 320.42 0.00 0.03 90 1008.2
20260507090016 8 285 1.6 8.0 320.42 0.00 0.03 90 1008.3
20260507085515 8 231 1.6 8.0 320.42 0.00 0.03 90 1008.5
20260507085015 8 284 3.2 11.3 320.42 0.00 0.03 90 1008.4
20260507084519 9 294 6.4 11.3 320.42 0.00 0.03 90 1008.2
20260507083016 9 307 0.0 3.2 320.42 0.00 0.03 90 1008.3
20260507082015 10 0 0.0 0.0 320.42 0.00 0.03 89 1008.1
20260507081516 10 0 0.0 0.0 320.42 0.00 0.03 89 1008.1
20260507081015 10 312 0.0 3.2 320.42 0.00 0.03 88 1008.2
20260507080017 10 293 0.0 8.0 320.42 0.00 0.03 87 1008.0
20260507075515 10 345 0.0 3.2 320.42 0.00 0.03 86 1007.8
20260507075015 10 257 1.6 11.3 320.42 0.00 0.03 85 1007.9
20260507074518 10 307 6.4 12.9 320.42 0.00 0.03 84 1008.0
20260507074015 10 295 6.4 14.5 320.42 0.00 0.03 87 1008.0
20260507073515 10 305 3.2 11.3 320.42 0.00 0.03 86 1008.1
20260507073016 10 262 4.8 8.0 320.42 0.00 0.03 88 1008.3
20260507072515 10 267 3.2 6.4 320.42 0.00 0.03 88 1008.3
20260507072015 10 308 1.6 6.4 320.42 0.00 0.03 88 1007.8
20260507071516 10 295 4.8 4.8 320.42 0.00 0.03 87 1007.7
20260507071015 10 284 1.6 9.7 320.42 0.00 0.03 87 1007.6
20260507070515 10 267 6.4 8.0 320.42 0.00 0.03 88 1007.6
20260507070016 10 301 4.8 11.3 320.42 0.00 0.03 88 1007.5
20260507065515 10 318 0.0 4.8 320.42 0.00 0.03 89 1007.4
20260507065015 10 252 3.2 6.4 320.42 0.00 0.03 89 1007.6
20260507064516 10 293 0.0 14.5 320.42 0.00 0.03 90 1007.5
20260507064016 11 312 8.0 6.4 320.42 0.00 0.03 90 1007.1
20260507063515 11 305 0.0 6.4 320.42 0.00 0.03 92 1007.2
20260507063016 11 273 4.8 9.7 320.42 0.00 0.03 92 1007.4
20260507062515 11 174 3.2 3.2 320.42 0.00 0.03 92 1007.5
20260507062015 11 0 0.0 0.0 320.42 0.00 0.03 92 1007.5
20260507061516 11 0 0.0 0.0 320.42 0.00 0.03 91 1007.3
20260507061015 11 278 0.0 6.4 320.42 0.00 0.03 91 1007.3
20260507060515 11 252 0.0 4.8 320.42 0.00 0.03 91 1007.5
20260507060015 11 271 3.2 6.4 320.42 0.00 0.03 90 1007.4
20260507055515 11 300 3.2 3.2 320.42 0.00 0.03 91 1007.5
20260507055015 11 307 1.6 6.4 320.42 0.00 0.03 92 1007.4
20260507054516 11 287 3.2 9.7 320.42 0.00 0.03 91 1007.5
20260507054015 11 0 4.8 0.0 320.42 0.00 0.03 92 1007.9
20260507053515 11 290 0.0 4.8 320.42 0.00 0.03 92 1007.9
20260507053016 11 287 1.6 6.4 320.42 0.00 0.03 91 1008.0
20260507052515 11 301 0.0 8.0 320.42 0.00 0.03 91 1007.9
20260507052015 12 287 0.0 6.4 320.42 0.00 0.03 91 1008.0
20260507051516 12 314 0.0 1.6 320.42 0.00 0.03 92 1007.7
20260507051015 12 307 1.6 4.8 320.42 0.00 0.03 92 1007.7
20260507050515 12 300 3.2 8.0 320.42 0.00 0.03 92 1008.0
20260507050015 12 0 0.0 0.0 320.42 0.00 0.03 93 1008.0
20260507045515 12 0 0.0 0.0 320.42 0.00 0.03 92 1008.0
20260507045015 12 301 0.0 3.2 320.42 0.00 0.03 92 1007.9
20260507044515 12 338 0.0 3.2 320.42 0.00 0.03 92 1007.6
20260507044015 12 345 0.0 8.0 320.42 0.00 0.03 92 1007.4
20260507043515 12 293 3.2 8.0 320.42 0.00 0.03 92 1007.5
20260507043016 12 278 4.8 6.4 320.42 0.00 0.03 93 1007.7
20260507042515 12 291 1.6 8.0 320.42 0.00 0.03 92 1007.7
20260507042015 12 294 1.6 9.7 320.42 0.00 0.03 93 1007.6
20260507041518 13 295 4.8 6.4 320.42 0.00 0.03 93 1007.6
20260507041015 13 309 0.0 6.4 320.40 0.00 0.00 92 1007.7
20260507040515 13 0 0.0 0.0 320.40 0.00 0.00 92 1007.6
20260507040015 13 339 0.0 0.0 320.40 0.00 0.00 92 1007.7
20260507035515 13 281 0.0 8.0 320.40 0.00 0.61 91 1007.6
20260507035015 13 277 0.0 12.9 320.40 0.00 0.61 91 1007.6
20260507034515 13 305 8.0 12.9 320.40 0.00 0.61 91 1007.7
20260507034015 13 305 1.6 14.5 320.37 0.00 0.58 91 1007.5
20260507033016 14 255 0.0 3.2 320.37 0.00 0.58 95 1007.3
20260507032515 14 280 0.0 9.7 320.37 0.00 0.58 95 1007.0
20260507032015 14 235 0.0 4.8 320.37 0.00 0.58 95 1007.0
20260507031515 14 276 1.6 11.3 320.37 0.00 0.58 95 1006.9
20260507031015 14 259 6.4 12.9 320.37 0.00 0.58 95 1006.8
20260507030515 14 266 4.8 14.5 320.37 0.00 0.58 95 1006.8
20260507030015 14 263 8.0 12.9 320.37 0.00 0.58 96 1006.5
20260507025515 15 300 6.4 17.7 320.37 0.00 0.58 96 1006.5
20260507025015 15 316 11.3 16.1 320.37 0.00 0.58 97 1006.6
20260507024515 15 290 1.6 16.1 320.37 0.00 0.58 98 1006.7
20260507024015 15 285 6.4 11.3 320.37 0.00 0.58 98 1006.6
20260507023517 15 280 6.4 9.7 320.37 0.00 0.58 98 1006.6
20260507023022 15 293 6.4 9.7 320.37 0.00 0.58 98 1006.6
20260507022515 15 263 3.2 9.7 320.37 0.00 0.58 98 1006.5
20260507022014 15 269 3.2 8.0 320.37 0.00 0.58 98 1006.5
20260507021515 15 260 4.8 6.4 320.37 0.00 0.58 98 1006.6
20260507021015 15 270 4.8 4.8 320.37 0.00 0.58 98 1006.4
20260507020515 15 304 3.2 6.4 320.37 0.00 0.58 97 1006.3
20260507020015 15 256 1.6 3.2 320.37 0.00 0.58 97 1006.2
20260507015515 15 288 0.0 4.8 320.37 0.00 0.58 97 1006.2
20260507015014 15 198 1.6 6.4 320.37 0.00 0.58 97 1006.3
20260507014515 15 240 0.0 4.8 320.37 0.00 0.58 97 1006.3
20260507014014 15 263 0.0 4.8 320.37 0.00 0.58 97 1006.3
20260507013515 15 229 1.6 3.2 320.37 0.00 0.58 97 1006.3
20260507013015 15 300 0.0 1.6 320.37 0.00 0.58 97 1006.4
20260507012514 15 211 0.0 6.4 320.37 0.00 0.58 97 1006.3
20260507012014 15 201 0.0 9.7 320.37 0.00 0.58 97 1006.3
20260507011515 15 204 3.2 9.7 320.37 0.00 0.58 97 1006.4
20260507011014 15 210 4.8 8.0 320.37 0.00 0.58 97 1006.3
20260507010516 15 205 0.0 9.7 320.37 0.00 0.58 97 1006.2
20260507010015 15 198 0.0 12.9 320.37 0.00 0.58 97 1006.3
20260507005514 15 191 1.6 12.9 320.37 0.00 0.58 97 1006.3
20260507005015 15 186 6.4 12.9 320.37 0.00 0.58 97 1006.3
20260507004515 15 159 1.6 16.1 320.37 0.00 0.58 97 1006.4
20260507004014 15 236 3.2 17.7 320.37 0.00 0.58 97 1006.2
20260507003514 15 193 11.3 17.7 320.37 0.00 0.58 97 1006.2
20260507003015 15 194 6.4 8.0 320.37 0.00 0.58 97 1006.2
20260507002515 15 195 3.2 17.7 320.37 0.00 0.58 97 1006.2
20260507002014 15 197 3.2 17.7 320.34 0.00 0.56 97 1006.1
20260507001515 15 186 9.7 16.1 320.34 0.00 0.56 97 1006.1
20260507001015 15 204 3.2 17.7 320.34 0.00 0.56 97 1006.0
20260507000516 15 195 1.6 12.9 320.34 0.00 0.56 97 1006.1
20260507000015 15 187 4.8 11.3 320.34 0.00 0.56 97 1006.2
20260506235514 15 205 1.6 16.1 320.34 0.00 0.56 97 1006.1
20260506235015 15 159 8.0 11.3 320.34 0.00 0.56 97 1006.1
20260506234515 15 167 4.8 16.1 320.34 0.00 0.56 97 1006.0
20260506234014 15 173 8.0 12.9 320.34 0.00 0.56 97 1006.0
20260506233516 15 226 4.8 12.9 320.34 0.00 0.56 97 1005.9
20260506233016 15 190 4.8 9.7 320.34 0.00 0.56 97 1005.9
20260506232514 15 173 1.6 22.5 320.34 0.00 0.56 97 1005.9
20260506232015 15 186 3.2 12.9 320.34 0.00 0.56 97 1005.9
20260506231515 15 180 4.8 11.3 320.34 0.00 0.56 97 1005.9
20260506231016 15 176 4.8 17.7 320.34 0.00 0.56 97 1006.0
20260506230015 15 246 8.0 16.1 320.34 0.00 0.56 97 1006.1
20260506225514 15 179 3.2 12.9 320.34 0.00 0.56 97 1006.0
20260506224515 15 200 3.2 16.1 320.29 0.00 0.51 97 1006.1
20260506224014 15 191 8.0 11.3 320.27 0.00 0.48 97 1006.1
20260506223515 15 172 3.2 14.5 320.27 0.00 0.48 97 1006.2
20260506223015 15 255 8.0 16.1 320.24 0.00 0.46 96 1006.1
20260506222514 15 158 8.0 17.7 320.24 0.00 0.46 96 1006.0
20260506222014 15 229 8.0 16.1 320.22 0.00 0.43 96 1006.2
20260506221515 15 233 9.7 17.7 320.19 0.00 0.41 96 1006.3
20260506221014 15 200 12.9 16.1 320.19 0.00 0.41 96 1006.4
20260506220514 15 187 9.7 14.5 320.19 0.00 0.41 96 1006.4
20260506220015 15 190 8.0 16.1 320.17 0.00 0.38 96 1006.4
20260506215514 15 201 9.7 12.9 320.14 0.00 0.36 96 1006.4
20260506215014 15 174 4.8 12.9 320.14 0.00 0.36 96 1006.4
20260506214516 15 177 8.0 17.7 320.14 0.00 0.36 95 1006.4
20260506214014 15 195 8.0 17.7 320.12 0.00 0.33 95 1006.5
20260506213514 15 181 9.7 17.7 320.12 0.00 0.33 95 1006.4
20260506213015 15 194 12.9 24.1 320.09 0.00 0.30 95 1006.4
20260506212514 15 176 11.3 22.5 320.09 0.00 0.30 95 1006.5
20260506212014 15 228 4.8 20.9 320.09 0.00 0.30 95 1006.5
20260506211515 15 160 9.7 19.3 320.09 0.00 0.30 95 1006.5
20260506211015 15 149 9.7 16.1 320.09 0.00 0.30 95 1006.6
20260506210515 15 180 9.7 20.9 320.09 0.00 0.30 95 1006.8
20260506210015 16 165 11.3 22.5 320.09 0.00 0.30 95 1006.7
20260506205514 16 172 8.0 17.7 320.09 0.00 0.30 95 1006.8
20260506204515 16 180 8.0 20.9 320.07 0.00 0.28 94 1006.9
20260506203514 16 191 11.3 16.1 320.07 0.00 0.28 94 1007.0
20260506203015 16 210 4.8 14.5 320.04 0.00 0.25 93 1007.1
20260506202517 16 181 6.4 16.1 320.04 0.00 0.25 93 1007.0
20260506202015 16 195 4.8 19.3 320.01 0.00 0.23 92 1007.0
20260506201517 16 187 6.4 22.5 320.01 0.00 0.23 92 1007.1
20260506201014 16 212 6.4 24.1 319.99 0.00 0.20 91 1006.9
20260506200516 16 217 8.0 17.7 319.99 0.00 0.20 91 1007.0
20260506200015 16 174 11.3 20.9 319.99 0.00 0.20 90 1007.1
20260506195514 16 203 1.6 19.3 319.96 0.00 0.18 90 1007.1
20260506195014 16 224 11.3 14.5 319.96 0.00 0.18 90 1007.3
20260506194515 16 188 6.4 20.9 319.96 0.00 0.18 90 1007.1
20260506193514 17 215 6.4 12.9 319.96 0.00 0.18 90 1007.2
20260506193016 17 219 4.8 14.5 319.96 0.00 0.18 90 1007.1
20260506192515 17 208 4.8 24.1 319.96 0.00 0.18 90 1007.1
20260506191517 17 210 3.2 12.9 319.96 0.00 0.18 91 1007.1
20260506191015 17 193 4.8 16.1 319.94 0.00 0.15 91 1007.1
20260506190014 17 195 6.4 8.0 319.94 0.00 0.15 90 1007.0
20260506185514 17 270 3.2 1.6 319.94 0.00 0.15 90 1007.1
20260506185014 17 225 1.6 9.7 319.91 0.00 0.13 88 1007.2
20260506184514 17 228 3.2 11.3 319.91 0.00 0.13 88 1007.2
20260506184014 17 291 3.2 16.1 319.89 0.00 0.10 87 1007.3
20260506183515 17 274 9.7 12.9 319.89 0.00 0.10 86 1007.5
20260506183015 17 288 4.8 12.9 319.86 0.00 0.08 84 1007.4
20260506182514 18 302 6.4 16.1 319.86 0.00 0.08 82 1007.5
20260506182014 18 276 4.8 9.7 319.84 0.00 0.05 81 1007.7
20260506181514 18 297 4.8 14.5 319.84 0.00 0.05 77 1007.7
20260506181014 19 277 4.8 12.9 319.81 0.00 0.03 72 1007.7
20260506180514 20 294 8.0 17.7 319.79 0.00 0.00 67 1007.7
20260506180015 20 290 4.8 24.1 319.79 0.00 0.00 65 1007.5
20260506175514 20 214 9.7 14.5 319.79 0.00 0.00 62 1007.6
20260506175014 20 176 6.4 20.9 319.79 0.00 0.00 60 1007.5
20260506174515 21 190 9.7 24.1 319.79 0.00 0.00 61 1007.5
20260506174014 21 267 4.8 11.3 319.79 0.00 0.00 58 1007.5
20260506173514 21 260 6.4 17.7 319.79 0.00 0.00 57 1007.4
20260506173014 21 136 8.0 17.7 319.79 0.00 0.00 56 1007.4
20260506172514 21 246 8.0 25.7 319.79 0.00 0.00 55 1007.4
20260506172014 22 173 8.0 27.4 319.79 0.00 0.00 53 1007.4
20260506171514 22 156 9.7 54.7 319.79 0.00 0.00 52 1007.5
20260506171014 22 183 17.7 67.6 319.79 0.00 0.00 51 1007.3
20260506170514 22 229 12.9 30.6 319.79 0.00 0.00 50 1007.4
20260506170015 22 166 16.1 30.6 319.79 0.00 0.00 51 1007.3
20260506165514 22 146 11.3 27.4 319.79 0.00 0.00 51 1007.4
20260506165014 22 203 3.2 29.0 319.79 0.00 0.00 53 1007.6
20260506164517 22 169 6.4 37.0 319.79 0.00 0.00 57 1007.6
20260506164014 21 146 4.8 24.1 319.79 0.00 0.00 55 1007.8
20260506163514 21 212 9.7 29.0 319.79 0.00 0.00 55 1007.9
20260506163014 21 200 11.3 16.1 319.79 0.00 0.00 57 1007.9
20260506162514 21 194 6.4 25.7 319.79 0.00 0.00 57 1008.0
20260506162015 21 221 8.0 29.0 319.79 0.00 0.00 57 1008.1
20260506161514 21 215 4.8 19.3 319.79 0.00 0.00 58 1008.1
20260506161014 21 204 11.3 22.5 319.79 0.00 0.00 57 1008.3
20260506160514 21 180 8.0 24.1 319.79 0.00 0.00 57 1008.3
20260506160014 21 180 9.7 24.1 319.79 0.00 0.00 59 1008.4
20260506155514 21 190 12.9 19.3 319.79 0.00 0.00 59 1008.5
20260506155013 21 169 8.0 11.3 319.79 0.00 0.00 61 1008.6
20260506154515 21 201 8.0 22.5 319.79 0.00 0.00 61 1008.7
20260506154013 20 170 12.9 20.9 319.79 0.00 0.00 60 1008.8
20260506153513 20 200 4.8 24.1 319.79 0.00 0.00 62 1008.8
20260506153014 20 235 8.0 14.5 319.79 0.00 0.00 62 1008.9
20260506152514 20 172 6.4 16.1 319.79 0.00 0.00 62 1009.0
20260506152015 20 186 9.7 22.5 319.79 0.00 0.00 61 1009.1
20260506151514 20 145 9.7 24.1 319.79 0.00 0.00 62 1009.2
20260506151014 20 188 12.9 22.5 319.79 0.00 0.00 62 1009.2
20260506150513 20 184 11.3 27.4 319.79 0.00 0.00 61 1009.3
20260506150014 20 187 3.2 25.7 319.79 0.00 0.00 62 1009.4
20260506145513 20 212 14.5 30.6 319.79 0.00 0.00 63 1009.2
20260506145013 20 200 8.0 12.9 319.79 0.00 0.00 64 1009.2
20260506144515 20 193 9.7 29.0 319.79 0.00 0.00 64 1009.5
20260506144013 20 198 14.5 32.2 319.79 0.00 0.00 64 1009.5
20260506143016 20 173 9.7 27.4 319.79 0.00 0.00 64 1009.4
20260506141516 19 166 8.0 35.4 319.79 0.00 0.00 66 1009.2
20260506140514 20 204 9.7 19.3 319.79 0.00 0.00 65 1009.1
20260506140015 20 165 12.9 30.6 319.79 0.00 0.00 64 1008.9
20260506135513 19 180 11.3 25.7 319.79 0.00 0.00 66 1009.0
20260506135013 19 191 6.4 22.5 319.79 0.00 0.00 67 1009.2
20260506134516 19 228 6.4 19.3 319.79 0.00 0.00 68 1009.1
20260506133514 18 177 8.0 25.7 319.79 0.00 0.00 69 1009.3
20260506133017 18 156 16.1 25.7 319.79 0.00 0.00 68 1009.4
20260506132513 18 180 8.0 22.5 319.79 0.00 0.00 70 1009.5
20260506132013 18 190 11.3 22.5 319.79 0.00 0.00 70 1009.5
20260506131514 18 162 12.9 22.5 319.79 0.00 0.00 71 1009.7
20260506131013 18 221 9.7 24.1 319.79 0.00 0.00 72 1009.8
20260506130513 17 195 6.4 14.5 319.79 0.00 0.00 73 1009.8
20260506130016 17 201 4.8 27.4 319.79 0.00 0.00 72 1009.8
20260506125513 17 169 9.7 25.7 319.79 0.00 0.00 73 1009.7
20260506124517 17 208 9.7 25.7 319.79 0.00 0.00 73 1009.8
20260506124013 17 177 12.9 29.0 319.79 0.00 0.00 72 1009.8
20260506123513 17 200 16.1 24.1 319.79 0.00 0.00 72 1009.7
20260506123014 17 197 6.4 25.7 319.79 0.00 0.00 73 1009.6
20260506122514 17 179 8.0 24.1 319.79 0.00 0.00 75 1009.4
20260506121519 17 232 9.7 20.9 319.79 0.00 0.00 75 1009.6
20260506120513 16 205 16.1 30.6 319.79 0.00 0.00 75 1010.0
20260506120014 16 188 9.7 20.9 319.79 0.00 0.00 76 1009.8
20260506115514 16 224 6.4 16.1 319.79 0.00 0.00 77 1009.8
20260506114515 16 195 11.3 17.7 319.79 0.00 0.00 79 1010.0
20260506114013 16 233 9.7 14.5 319.79 0.00 0.00 79 1010.0
20260506113513 16 169 4.8 17.7 319.79 0.00 0.00 78 1010.0
20260506113014 16 172 6.4 19.3 319.79 0.00 0.00 79 1010.1